星链-37301(STARLINK-37301)

导读

STARLINK-37301(NORAD编号68954)是美国SpaceX公司星链(Starlink)卫星互联网星座的一员,属于星链项目规模化部署阶段发射的低轨通信卫星。星链项目计划在近地轨道部署上万颗卫星,为全球提供高带宽、低延迟的互联网接入服务,覆盖偏远地区,也可支持军事与应急通信场景。该卫星运行于近地轨道,参与构建全球卫星互联网络,推动全球网络覆盖,但星链的大规模扩张也引发了太空拥堵、天文观测干扰等争议。作为星链星座的常规组网卫星,STARLINK-37301承担着星链网络节点通信转发功能,助力星座服务能力的持续扩展。

基本信息
目录编号:
68954
目录名称:
STARLINK-37301
国际标识:
2026-099D
轨道中心:
EARTH
卫星名称:
星链-37301
卫星全名:
星链-37301(STARLINK-37301)
卫星状态:
在轨 (已飞行127 天)
发射日期:
2026-05-01 UTC
国别 :
美国 (US)
星等 :
--
轨道信息
数据来源 国际轨道数据
星历时间: 2026-09-05T11:19:56+0800
10小时前
查看轨道信息
半长轴: 6840.846km
偏心率: 0.000118
轨道倾角: 53.157°
近地点辐角 79.719°
升交点赤经 147.790°
平近点角 280.394°
近地点: 461.901km
远地点: 463.517km
周期: 93.848分钟
每日圈数: 15.343983
详细信息
固有亮度:
5
最大亮度:
2.5
卫星平台:
Starlink V1.0
覆盖范围:
全球
运营商:
太空探索技术公司
运营商所在国:
美国
制造商(研发单位):
太空探索技术公司
制造商所在国:
美国
使用方式:
暂无
卫星简介
Starlink 计划是 SpaceX 推出的全球卫星互联网项目,通过发射低轨道卫星,为全球尤其是偏远地区提供高速、低延迟的互联网服务。自 2019 年起,Starlink 已部署数千颗卫星,旨在缩小全球数字鸿沟,推动互联网普及。该项目还为军事、航空等行业提供通信支持,带来广泛经济效益。
2D轨道图
3D轨道图
轨道高度分析图
轨道倾角分析图
轨道综合分析图
查看轨道综合分析图
交会数据列表
事件ID 空间交会对象 最接近时刻(TCA) 交会距离 交会风险概率(CRP) 交会风险指数(CRI) 操作
CDM_260908-023606-048506-895421
2026-09-08T
02:36:08+0000
2.443 km
极远距离
1.817504E-6 低风险 0.4
CDM_260906-042406-051306-895422
2026-09-06T
04:24:53+0000
2.649 km
极远距离
1.587697E-6 低风险 0.39
CDM_260907-131605-298806-895421
2026-09-07T
13:16:09+0000
2.628 km
极远距离
1.416799E-6 低风险 0.38
CDM_260905-235205-256606-895421
2026-09-05T
23:52:11+0000
2.879 km
极远距离
1.126299E-6 低风险 0.36